AO-07 1 07530U 74089B 25118.02163668 -.00000039 00000-0 48071-4 0 9999 2 07530 101.9947 121.8312 0012090 201.6842 166.1026 12.53688718308733 UO-11 1 14781U 84021B 25118.87860111 .00002722 00000-0 29321-3 0 9998 2 14781 97.7512 86.0854 0009388 110.0458 250.1771 14.89243006216438 AO-27 1 22825U 93061C 25118.11920590 .00000279 00000-0 12390-3 0 9998 2 22825 98.7399 179.4563 0007513 232.4034 127.6467 14.30782872647917 FO-29 1 24278U 96046B 25118.46204864 .00000036 00000-0 69770-4 0 9991 2 24278 98.5800 17.8907 0350938 91.7090 272.4272 13.53245254417328 NOAA-15 1 25338U 98030A 25118.81041871 .00000372 00000-0 17039-3 0 9993 2 25338 98.5388 144.9407 0011404 119.1277 241.1047 14.26953406402444 GO-32 1 25397U 98043D 25117.91028804 .00000225 00000-0 11751-3 0 9995 2 25397 98.9681 96.1456 0001289 21.4632 338.6600 14.24302251392215 ISS 1 25544U 98067A 25118.69904601 .00018272 00000-0 33462-3 0 9993 2 25544 51.6381 192.1629 0002672 81.2921 56.6448 15.49375691507483 NO-44 1 26931U 01043C 25118.03320609 .00000496 00000-0 21682-3 0 9990 2 26931 67.0509 237.8415 0005650 271.9685 88.0770 14.31710581231179 SO-50 1 27607U 02058C 25117.89293697 .00002730 00000-0 35791-3 0 9996 2 27607 64.5549 332.2892 0051229 344.0894 15.8599 14.81495432203112 CO-55 1 27844U 03031E 25118.23940460 .00000725 00000-0 33506-3 0 9991 2 27844 98.6777 127.0575 0008710 316.2260 43.8228 14.23958168132644 CO-57 1 27848U 03031J 25117.95721345 .00000644 00000-0 30373-3 0 9991 2 27848 98.6803 126.8164 0008972 335.5185 24.5566 14.23297888132353 RS-22 1 27939U 03042A 25118.81550274 .00002424 00000-0 39213-3 0 9991 2 27939 98.3247 287.2688 0012381 138.4541 332.8588 14.72229267154680 NOAA-18 1 28654U 05018A 25118.79054618 .00000357 00000-0 21278-3 0 9994 2 28654 98.8423 198.7360 0013224 245.5532 114.4262 14.13586507 27844 CO-58 1 28895U 05043F 25118.81935836 .00003579 00000-0 59252-3 0 9994 2 28895 98.2435 262.6660 0015740 81.4624 278.8365 14.70849730 41035 CO-65 1 32785U 08021C 25118.16442533 .00010307 00000-0 75052-3 0 9994 2 32785 97.7829 89.0379 0010076 10.6299 349.5137 15.03931685922776 AAUSAT2 1 32788U 08021F 25118.45434692 .00518416 00000-0 26250-2 0 9995 2 32788 97.5968 115.3482 0009312 135.4622 224.7395 15.80136486926849 CO-66 1 32791U 08021J 25118.38967137 .00022270 00000-0 11102-2 0 9994 2 32791 97.7259 97.5313 0002662 356.8253 3.2962 15.17556301924178 RS-30 1 32953U 08025A 25118.79429704 .00000037 00000-0 19088-3 0 9995 2 32953 82.5011 253.1618 0020375 135.8620 224.4090 12.43163291768340 NOAA-19 1 33591U 09005A 25118.86100930 .00000329 00000-0 19917-3 0 9993 2 33591 98.9997 183.3267 0014777 120.3445 239.9190 14.13351011836212 SRMSAT 1 37841U 11058D 25117.96807690 .00000629 00000-0 19820-3 0 9999 2 37841 19.9725 52.4051 0011574 316.4280 114.6185 14.11419875699301 ZACUBE-1 1 39417U 13066B 25118.39324424 .00007758 00000-0 67970-3 0 9997 2 39417 97.7768 75.6544 0043998 190.9947 169.0317 14.96206897618603 Delfi-N3xt 1 39428U 13066N 25118.33254556 .00011810 00000-0 12137-2 0 9999 2 39428 97.8372 36.4783 0087068 138.5661 222.2202 14.87685547612976 GOMX-1 1 39430U 13066Q 25118.82688634 .00003192 00000-0 50234-3 0 9999 2 39430 97.6880 340.0466 0132050 326.6762 32.6181 14.67469183609280 LO-74 1 39440U 13066AA 25118.09477950 .00009549 00000-0 97120-3 0 9993 2 39440 97.8472 62.9668 0061459 321.7477 37.9388 14.89569946616318 AO-73 1 39444U 13066AE 25118.37710080 .00013342 00000-0 10129-2 0 9991 2 39444 97.7761 80.1581 0041450 167.5117 192.7144 15.01628189617843 DTUSAT-2 1 40030U 14033W 25118.15509293 .00013171 00000-0 86818-3 0 9996 2 40030 98.0524 87.9519 0008655 190.7175 169.3868 15.07602957590513 EO-80 1 40032U 14033Y 25117.91208769 .00014521 00000-0 95458-3 0 9995 2 40032 98.0416 87.4113 0010032 134.3781 225.8268 15.07666706589948 LILACSAT-2 1 40908U 15049K 25118.78629373 .00017816 00000-0 48018-3 0 9999 2 40908 97.5087 138.1482 0007721 318.9397 41.1266 15.37852375531806 IO-86 1 40931U 15052B 25038.81889873 .00001817 00000-0 15548-3 0 9993 2 40931 6.0001 108.1159 0012838 187.7041 172.2889 14.78568669506492 Horyu-4 1 41340U 16012D 25118.17316614 .00038443 00000-0 10956-2 0 9993 2 41340 30.9977 56.7125 0008067 328.7493 31.2672 15.34830293506260 Lapan A3 1 41603U 16040E 25118.83170683 .00006396 00000-0 22549-3 0 9997 2 41603 97.1379 125.0851 0012851 63.8379 296.4182 15.29525108491405 CAS-2T 1 41847U 16066G 25118.18812933 .00001399 00000-0 20940-3 0 9995 2 41847 98.4211 193.0156 0345539 306.8796 50.1178 14.43369840444909 CAS-4B 1 42759U 17034B 25118.74207716 .00079894 00000-0 10242-2 0 9991 2 42759 43.0080 210.2710 0019334 355.1098 4.9574 15.57986735436062 CAS-4A 1 42761U 17034D 25118.67661058 .00085774 00000-0 10593-2 0 9992 2 42761 43.0116 208.2063 0020579 359.1501 0.9324 15.58913396436073 TechnoSat 1 42829U 17042E 25118.52883739 .00006039 00000-0 47086-3 0 9997 2 42829 97.3925 289.2489 0015573 65.2464 295.0379 15.01433246424411 AO-91 1 43017U 17073E 25117.89080481 .00014572 00000-0 75862-3 0 9997 2 43017 97.5320 349.7505 0173039 312.5076 46.1640 15.04010278402794 S-Net D 1 43186U 18014G 25118.19933413 .00009904 00000-0 59020-3 0 9997 2 43186 97.5668 21.5449 0009803 22.2581 337.9073 15.11347330395973 S-Net B 1 43187U 18014H 25118.20419293 .00010101 00000-0 60205-3 0 9993 2 43187 97.5672 21.5192 0010342 16.8838 343.2734 15.11328507395977 S-Net A 1 43188U 18014J 25118.19986235 .00009868 00000-0 58789-3 0 9999 2 43188 97.5681 21.6593 0010277 17.9469 342.2122 15.11352629395975 S-Net C 1 43189U 18014K 25118.20649682 .00010118 00000-0 60295-3 0 9999 2 43189 97.5695 21.6728 0011504 8.9844 351.1590 15.11325650394524 Ten-Koh 1 43677U 18084G 25118.44987501 .00004996 00000-0 40290-3 0 9999 2 43677 98.0909 289.0320 0008226 66.6022 293.6065 15.00350752353929 PO-101 1 43678U 18084H 25118.84726771 .00004312 00000-0 36902-3 0 9991 2 43678 98.1029 293.3904 0009996 68.8191 291.4097 14.98124152354130 QO-100 1 43700U 18090A 25117.89628052 .00000146 00000-0 00000-0 0 9999 2 43700 0.0259 121.6212 0001742 312.8676 130.0848 1.00272161 23519 MinXSS-2 1 43758U 18099A 25118.14003704 .00029239 00000-0 11955-2 0 9998 2 43758 97.5043 184.0760 0010462 306.2027 53.8242 15.24258920350501 AO-95 1 43770U 18099N 25118.09908188 .00017670 00000-0 91100-3 0 9993 2 43770 97.4948 176.6712 0010451 9.2622 350.8801 15.16376654350115 RANGE-A 1 43773U 18099R 25117.56151176 .00009002 00000-0 57805-3 0 9998 2 43773 97.4516 167.2129 0010676 346.9299 13.1651 15.08633453349739 MOVE-II 1 43780U 18099Y 25118.85961793 .00165955 00000-0 19569-2 0 9997 2 43780 97.4683 191.8032 0004269 238.7491 121.3348 15.60798264351267 SNUSat 2 1 43782U 18099AA 25117.39002055 .00012154 00000-0 67422-3 0 9998 2 43782 97.4634 173.0685 0010544 306.3817 53.6441 15.13861613349960 SnugLite 1 43784U 18099AC 25118.13832235 .00017287 00000-0 88469-3 0 9990 2 43784 97.4448 173.2819 0001875 319.6929 40.4165 15.16685863350204 ITASat 1 1 43786U 18099AE 25118.14317089 .00012290 00000-0 71060-3 0 9996 2 43786 97.4605 173.4384 0014053 0.0985 0.0246 15.12335167350044 EAGLET 1 1 43790U 18099AJ 25118.10771974 .00008924 00000-0 57277-3 0 9997 2 43790 97.4794 173.4937 0011362 341.8675 18.2147 15.08648231349665 ESEO 1 43792U 18099AL 25118.11303303 .00003093 00000-0 23748-3 0 9995 2 43792 97.4514 167.3279 0010489 318.0861 41.9561 15.02436416349443 CSIM 1 43793U 18099AM 25118.18971885 .00170945 00000-0 20327-2 0 9999 2 43793 97.4864 193.2969 0006795 245.0563 114.9988 15.60547119351005 JO-97 1 43803U 18099AX 25117.60563863 .00019195 00000-0 89946-3 0 9992 2 43803 97.4700 177.0907 0005918 296.4963 63.5664 15.19726661350248 Suomi 100 1 43804U 18099AY 25117.61902509 .00015377 00000-0 76906-3 0 9998 2 43804 97.4765 176.5172 0010857 299.1742 60.8405 15.17471188350186 ISAT 1 43879U 18111D 25118.74392950 .00030655 00000-0 11157-2 0 9995 2 43879 97.5987 32.2622 0008759 3.0162 357.1128 15.28139716345288 UWE-4 1 43880U 18111E 25117.50369564 .00027660 00000-0 11236-2 0 9995 2 43880 97.5930 29.7639 0012665 12.8232 347.3324 15.24467052347064 Sparrow 1 43881U 18111F 25118.56175163 .00032081 00000-0 11287-2 0 9992 2 43881 97.6127 34.7974 0008674 43.3399 316.8521 15.29241705345361 Prox-1 1 44339U 19036A 25117.92490992 .00019432 00000-0 25347-2 0 9994 2 44339 23.9985 341.7902 0007465 309.4846 50.4990 14.78968598311785 SONATE 1 44400U 19038Q 25118.02299425 .00185386 00000-0 11322-2 0 9995 2 44400 97.6958 139.7901 0006864 74.5530 285.6493 15.76820253322830 Taurus 1 1 44530U 19059C 25118.80691129 .00012817 00000-0 23837-2 0 9997 2 44530 98.6023 256.2463 0010759 162.6191 197.5381 14.65227288297829 Duchifat 3 1 44854U 19089C 25118.74269773 .00067966 00000-0 14981-2 0 9993 2 44854 36.9446 260.5005 0001490 291.8670 68.1927 15.42831648296477 TO-108 1 44881U 19093C 25118.86648611 .00001759 00000-0 20959-3 0 9994 2 44881 97.7932 195.3883 0014028 14.8225 345.3399 14.85503751289888 FloripaSat 1 1 44885U 19093G 25118.80637837 .00008850 00000-0 75391-3 0 9999 2 44885 97.8171 206.3391 0010112 354.3936 5.7171 14.97968607290498 RS-44 1 44909U 19096E 25117.86805738 -.00000005 00000-0 -67326-4 0 9997 2 44909 82.5196 255.6544 0217941 35.7071 325.8385 12.79740293249224 UPMSat 2 1 46276U 20061E 25118.19150114 .00080278 00000-0 87742-3 0 9999 2 46276 97.2475 191.3195 0001433 144.1174 216.0182 15.63069110258831 SALSAT 1 46495U 20068K 25118.88025232 .00013013 00000-0 57067-3 0 9997 2 46495 97.8583 95.0095 0010005 314.5959 45.4458 15.22078436252186 CubeSX-Sirius-HSE 1 47951U 21022V 25118.46677247 .00291917 00000-0 17901-2 0 9992 2 47951 97.4191 29.3360 0010501 103.0614 257.1824 15.76402311227172 CubeSX-HSE 1 47952U 21022W 25118.86542447 .00257100 00000-0 15340-2 0 9991 2 47952 97.4208 30.0096 0009837 100.3502 259.8873 15.77127896227258 GRBAlpha 1 47959U 21022AD 25118.71630470 .00262669 00000-0 16256-2 0 9999 2 47959 97.4190 29.9591 0010002 102.1567 258.0819 15.76276813226050 TUBIN 1 48900U 21059X 25118.80208984 .00064029 00000-0 89555-3 0 9990 2 48900 97.6732 284.7617 0002654 40.3419 319.8031 15.56617726213535 LEDSAT 1 49069U 21073D 25118.68638489 .00078697 00000-0 11580-2 0 9994 2 49069 97.3912 198.6466 0011612 223.3458 136.6884 15.55105649204912 CUTE 1 49263U 21088D 25118.16124516 .00025943 00000-0 54445-3 0 9994 2 49263 97.4526 193.2346 0008762 46.0202 314.1767 15.45318014197877 TeikyoSat 4 1 49396U 21102B 25118.53584003 .00003775 00000-0 25282-3 0 9996 2 49396 97.4130 158.4774 0011012 278.4549 81.5431 15.07435583190213 Z-Sat 1 49399U 21102E 25118.78843825 .00007116 00000-0 39402-3 0 9998 2 49399 97.3839 161.5644 0016691 246.2432 113.7050 15.14009346190659 KOSEN 1 1 49402U 21102H 25118.07732837 .00013301 00000-0 62490-3 0 9991 2 49402 97.3747 163.9762 0015149 222.7708 137.2350 15.19630124190834 HO-113 1 50466U 21131B 25118.88457914 .00001133 00000-0 36794-3 0 9992 2 50466 98.5085 208.4474 0003015 254.2262 105.8595 14.40755471175441 IRIS-A 1 51044U 22002BN 25118.17684944 .00249920 00000-0 12299-2 0 9991 2 51044 97.3261 196.4201 0004138 248.0362 112.0467 15.81484587183158 Foresail-1 1 52766U 22057AL 25118.85731798 .00198612 00000-0 11681-2 0 9993 2 52766 97.6043 266.2180 0000398 262.6002 97.5218 15.77666199163289 SNUGLITE 2 1 52899U 22065F 25118.84305023 .00002485 00000-0 49294-3 0 9990 2 52899 98.1623 261.2399 0006602 238.0909 121.9651 14.63092923150382 IO-117 1 53106U 22080B 25051.21822557 -.00000003 00000-0 00000 0 0 9995 2 53106 70.1434 106.3440 0008542 48.0089 312.1297 6.42557744 61200 UmKA 1 (RS40S) 1 57172U 23091G 25118.86735494 .00009334 00000-0 50425-3 0 9998 2 57172 97.5614 174.4736 0016298 117.1920 243.0975 15.14814417101160 CubeBel-2 (EU11S) 1 57175U 23091K 25118.86917301 .00014611 00000-0 71105-3 0 9992 2 57175 97.5614 175.3802 0014101 125.5444 234.7107 15.18404261101229 VERONIKA 1 58261U 23174F 25118.83439739 .00127678 00000-0 15591-2 0 9996 2 58261 97.4151 202.8408 0007641 198.7650 161.3326 15.59985902 82150 ENSO 1 58470U 23185J 25118.83629342 .00063033 00000-0 10703-2 0 9995 2 58470 97.3761 192.7539 0008152 220.5392 139.5254 15.51229521 78551 EIRSAT-1 1 58472U 23185L 25118.84843777 .00102505 00000-0 12918-2 0 9996 2 58472 97.3730 194.0610 0007504 218.6487 141.4233 15.59240236 78640 SONATE-2 1 59112U 24043Q 25117.34038159 .00026615 00000-0 80478-3 0 9990 2 59112 97.5074 247.7167 0010482 265.0551 94.9495 15.34139039 63709 MO-122 1 60209U 24125G 25118.34151015 .00029119 00000-0 86731-3 0 9998 2 60209 97.2838 330.4685 0017725 289.9849 69.9485 15.34492565 45471 GRBBeta 1 60237U 24128C 25118.00824119 .00008112 00000-0 61210-3 0 9992 2 60237 61.9927 227.9439 0048147 48.0213 312.4963 15.02227192 43806 Curium One 1 60242U 24128H 25118.50965003 .00012033 00000-0 84849-3 0 9991 2 60242 61.9827 225.0720 0048062 43.6416 316.8460 15.04426721 43907 ROBUSTA-3A 1 60243U 24128J 25118.69939699 .00012340 00000-0 88101-3 0 9990 2 60243 61.9897 225.1018 0046546 41.4683 318.9925 15.04003076 43928 CatSat 1 60246U 24125J 25117.52341057 .00014495 00000-0 49750-3 0 9996 2 60246 97.2633 329.3456 0041883 246.3866 113.2975 15.29390372 43401 HYPERVIEW-1G (RS66S) 1 61772U 24199AP 25118.88024731 .00029062 00000-0 89044-3 0 9995 2 61772 97.3592 347.8646 0013269 350.2129 9.8853 15.33667306 70562 AO-123 1 61781U 24199AY 25118.86670745 .00010312 00000-0 38181-3 0 9999 2 61781 97.3602 347.1445 0015592 352.4113 7.6888 15.27736658 70511 ZIMSAT 2 1 61783U 24199BA 25118.86063240 .00050113 00000-0 13517-2 0 9995 2 61783 97.3576 348.1808 0013265 348.3388 11.7547 15.37545184 73738 HADES-R (SO-124) 1 62690U 25009CK 25117.83676323 .00057312 00000-0 22221-2 0 9992 2 62690 97.4107 198.9059 0003665 211.0515 149.0507 15.25916596 15628 HYDRA-T 1 62692U 25009CM 25117.50052746 .00059451 00000-0 22936-2 0 9994 2 62692 97.4108 198.5915 0003641 206.7478 153.3573 15.26071293 15573 JINJUSat 1B 1 63210U 25052A 25118.20427575 .00020140 00000-0 94764-3 0 9995 2 63210 97.4468 12.8856 0006520 104.2126 255.9833 15.19570387 6817 NUSHSAT 1 1 63211U 25052B 25118.66488036 .00020349 00000-0 95397-3 0 9999 2 63211 97.4453 13.3362 0006461 107.4001 252.7941 15.19695150 6889 TEVEL2-4 1 63213U 25052D 25118.47335791 .00021124 00000-0 99751-3 0 9999 2 63213 97.4373 13.0875 0005331 117.8143 242.3633 15.19442605 6850 TEVEL2-5 1 63214U 25052E 25117.88082321 .00021801 00000-0 10303-2 0 9999 2 63214 97.4376 12.5036 0005302 119.1341 241.0425 15.19407401 6760 TEVEL2-6 1 63215U 25052F 25118.21113335 .00020467 00000-0 96835-3 0 9990 2 63215 97.4376 12.8269 0005390 119.3101 240.8673 15.19382285 6815 TEVEL2-1 1 63217U 25052H 25118.21644667 .00019940 00000-0 94885-3 0 9996 2 63217 97.4350 12.8065 0005301 128.9484 231.2223 15.19187801 6817 TEVEL2-2 1 63218U 25052J 25118.87534295 .00018447 00000-0 87779-3 0 9999 2 63218 97.4349 13.4547 0005372 128.0402 232.1318 15.19205792 6913 TEVEL2-3 1 63219U 25052K 25118.87535758 .00017898 00000-0 85188-3 0 9996 2 63219 97.4349 13.4547 0005312 127.7771 232.3945 15.19202558 6918 TEVEL2-8 1 63237U 25052AD 25118.18323800 .00020717 00000-0 10186-2 0 9992 2 63237 97.4415 12.7338 0009244 150.3491 209.8269 15.18016993 6802 TEVEL2-9 1 63238U 25052AE 25118.18413318 .00020449 00000-0 10067-2 0 9997 2 63238 97.4416 12.7341 0009381 150.4985 209.6780 15.17973126 6804 TEVEL2-7 1 63239U 25052AF 25117.26220314 .00019397 00000-0 95733-3 0 9992 2 63239 97.4418 11.8240 0009206 153.5911 206.5794 15.17897404 6663 HYDRA-W 1 63490U 25052BL 25118.53702028 .00038681 00000-0 17454-2 0 9999 2 63490 97.4365 13.1517 0013744 149.7273 210.4759 15.20806929 6868 HADES-ICM 1 63492U 25052BN 25118.47602428 .00036769 00000-0 16749-2 0 9998 2 63492 97.4373 13.0824 0013865 153.5627 206.6318 15.20492439 6853